Location: Unspecified
(47.5840°N, 122.3000°W)
Time: 16:04:05
(UTC+00:00)

USA 59 Rocket - Pass Details

Date: 16 March 2026
Orbit: 368 x 1667 km, 63.3° (Epoch: 15 April)

Event Time Altitude Azimuth Distance (km) Brightness Sun altitude
Exits shadow 11:15:09 15° 30° (NNE) 1,290 2.4 -30.2°
Maximum altitude 11:15:24 15° 35° (NE) 1,297 2.4 -30.2°
Drops below altitude 10° 11:17:39 10° 73° (ENE) 1,710 3.1 -29.9°
Sets 11:20:53 0° 96° (E) 2,823 4.1 -29.4°
